Flinterduin — PEBT — position and weather

sailwx.info

Track history (hours):
 
Tides and Currents Weather Stations Pressure Air Temp Water Temp Dewpoint Dewpoint Depression Visibility Wind Speed Wind Dir Waves Ship Positions

Flinterduin

Last reported at 2014-Oct-18 19:33 UTC. Time now 2014-Oct-20 04:29 UTC.
Position N 38°04' W 009°40'.

Length 112 m; beam 15 m.

Type: Cargo ship. MMSI: 246484000.

Date/timePositionNaut miles runAvg speedWind from/ knotsBaromVisibWave heightAir tempDewpointWater temp
2014-Oct-18 19:33N 38°04' W 009°40'1111.5
2014-Oct-18 18:33N 37°53' W 009°37'1111.5
2014-Oct-18 17:33N 37°42' W 009°34'1111.3
2014-Oct-18 16:33N 37°31' W 009°30'1111.2
2014-Oct-18 15:33N 37°20' W 009°27'88 9.4
2014-Oct-18 06:12N 36°26' W 008°01'710.7
2014-Oct-18 05:33N 36°24' W 007°52'11210.9
2014-Oct-17 19:20N 35°58' W 005°38'810.6
2014-Oct-17 18:33N 35°60' W 005°28'9 9.3
2014-Oct-17 17:34N 36°02' W 005°17'22111.1
2014-Oct-16 21:33N 36°36' W 000°46'4012.0
2014-Oct-16 18:13N 36°42' E 000°04'812.0
2014-Oct-16 17:33N 36°43' E 000°13'2711.2
2014-Oct-16 15:10N 36°48' E 000°46'1010.4
2014-Oct-16 14:10N 36°48' E 000°59'40610.4
2014-Oct-14 23:19N 37°42' E 009°24'810.1
2014-Oct-14 22:33N 37°42' E 009°34'5410.7
2014-Oct-14 17:32N 37°34' E 010°41'1211.7
2014-Oct-14 16:33N 37°31' E 010°55'1311.9
2014-Oct-14 15:25N 37°27' E 011°11'1011.9
2014-Oct-14 14:32N 37°23' E 011°23'1111.7
2014-Oct-14 13:34N 37°20' E 011°37'4911.4
2014-Oct-14 09:17N 37°07' E 012°36'1111.8
2014-Oct-14 08:22N 37°03' E 012°49'1011.9
2014-Oct-14 07:33N 37°01' E 013°00'50911.0
2014-Oct-12 09:19N 36°49' E 023°37'1213.2
2014-Oct-12 08:26N 36°56' E 023°50'1312.5
2014-Oct-12 07:24N 37°06' E 023°59'1012.2
2014-Oct-12 06:33N 37°14' E 024°07'1212.5
2014-Oct-12 05:34N 37°24' E 024°16'1813.0
2014-Oct-12 04:10N 37°39' E 024°29'813.6
2014-Oct-12 03:33N 37°47' E 024°32'  
Track history (hours):
 
Tides and Currents Weather Stations Pressure Air Temp Water Temp Dewpoint Dewpoint Depression Visibility Wind Speed Wind Dir Waves Ship Positions

Flinterduin

Last reported at 2014-Oct-18 19:33 UTC. Time now 2014-Oct-20 04:29 UTC.
Position N 38°04' W 009°40'.

Length 112 m; beam 15 m.

Type: Cargo ship. MMSI: 246484000.

Date/timePositionNaut miles runAvg speedWind from/ knotsBaromVisibWave heightAir tempDewpointWater temp
2014-Oct-18 19:33N 38°04' W 009°40'1111.5
2014-Oct-18 18:33N 37°53' W 009°37'1111.5
2014-Oct-18 17:33N 37°42' W 009°34'1111.3
2014-Oct-18 16:33N 37°31' W 009°30'1111.2
2014-Oct-18 15:33N 37°20' W 009°27'88 9.4
2014-Oct-18 06:12N 36°26' W 008°01'710.7
2014-Oct-18 05:33N 36°24' W 007°52'11210.9
2014-Oct-17 19:20N 35°58' W 005°38'810.6
2014-Oct-17 18:33N 35°60' W 005°28'9 9.3
2014-Oct-17 17:34N 36°02' W 005°17'22111.1
2014-Oct-16 21:33N 36°36' W 000°46'4012.0
2014-Oct-16 18:13N 36°42' E 000°04'812.0
2014-Oct-16 17:33N 36°43' E 000°13'2711.2
2014-Oct-16 15:10N 36°48' E 000°46'1010.4
2014-Oct-16 14:10N 36°48' E 000°59'40610.4
2014-Oct-14 23:19N 37°42' E 009°24'810.1
2014-Oct-14 22:33N 37°42' E 009°34'5410.7
2014-Oct-14 17:32N 37°34' E 010°41'1211.7
2014-Oct-14 16:33N 37°31' E 010°55'1311.9
2014-Oct-14 15:25N 37°27' E 011°11'1011.9
2014-Oct-14 14:32N 37°23' E 011°23'1111.7
2014-Oct-14 13:34N 37°20' E 011°37'4911.4
2014-Oct-14 09:17N 37°07' E 012°36'1111.8
2014-Oct-14 08:22N 37°03' E 012°49'1011.9
2014-Oct-14 07:33N 37°01' E 013°00'50911.0
2014-Oct-12 09:19N 36°49' E 023°37'1213.2
2014-Oct-12 08:26N 36°56' E 023°50'1312.5
2014-Oct-12 07:24N 37°06' E 023°59'1012.2
2014-Oct-12 06:33N 37°14' E 024°07'1212.5
2014-Oct-12 05:34N 37°24' E 024°16'1813.0
2014-Oct-12 04:10N 37°39' E 024°29'813.6
2014-Oct-12 03:33N 37°47' E 024°32'  

Dump ship's entire track history